EDT,Max TemperatureF,Mean TemperatureF,Min TemperatureF,Max Dew PointF,MeanDew PointF,Min DewpointF,Max Humidity, Mean Humidity, Min Humidity, Max Sea Level PressureIn, Mean Sea Level PressureIn, Min Sea Level PressureIn, Max VisibilityMiles, Mean VisibilityMiles, Min VisibilityMiles, Max Wind SpeedMPH, Mean Wind SpeedMPH, Max Gust SpeedMPH,PrecipitationIn, CloudCover, Events, WindDirDegrees
2012-9-1,89,79,69,72,69,66,97,72,47,30.16,30.10,30.01,10,9,2,15,2,20,0.18,6,Rain-Thunderstorm,201
2012-9-2,88,78,68,72,69,67,100,78,55,30.10,30.01,29.88,10,5,0,28,3,35,1.11,7,Fog-Rain-Thunderstorm,136
2012-9-3,83,76,68,72,68,66,97,81,65,30.03,29.93,29.88,10,10,6,13,2,16,T,7,Rain,225
2012-9-4,86,77,67,72,69,66,100,80,59,29.96,29.89,29.84,10,10,10,12,3,15,T,7,Rain,181
2012-9-5,85,79,72,72,71,70,100,81,61,29.99,29.90,29.81,10,8,1,10,3,16,0.44,7,Rain,237
2012-9-6,85,76,66,72,69,66,100,78,55,30.02,29.92,29.85,10,10,3,12,3,15,T,5,,280
2012-9-7,89,77,65,70,66,64,100,73,46,30.04,29.95,29.80,10,5,0,9,1,12,0.00,3,Fog,326
2012-9-8,79,66,53,68,64,54,93,78,62,29.92,29.81,29.73,10,8,2,24,3,36,0.41,6,Rain,276
2012-9-9,75,64,52,58,54,51,100,73,46,30.05,29.97,29.91,10,5,0,10,2,14,0.00,5,Fog,312
2012-9-10,76,64,52,57,54,52,100,72,43,30.19,30.11,30.02,10,7,0,10,2,13,0.00,3,Fog,336
2012-9-11,80,66,52,58,53,50,93,66,39,30.26,30.21,30.16,10,10,9,8,2,14,0.00,3,,314
2012-9-12,82,68,54,60,56,54,100,70,39,30.33,30.26,30.20,10,8,3,8,1,14,0.00,2,,83
2012-9-13,81,67,52,59,55,50,100,68,35,30.34,30.27,30.20,10,8,2,8,1,12,0.00,3,,338
2012-9-14,82,70,57,61,57,54,93,66,39,30.26,30.20,30.15,10,10,9,7,1,12,0.00,4,,242
2012-9-15,81,69,56,61,58,55,100,74,48,30.28,30.19,30.09,10,6,0,10,2,14,0.00,3,Fog,9
2012-9-16,78,69,60,64,60,57,90,72,54,30.11,30.06,30.01,10,10,8,9,1,12,T,6,Rain,330
2012-9-17,71,67,62,66,64,60,100,89,78,30.03,29.95,29.76,10,5,1,7,0,9,1.13,8,Rain,19
2012-9-18,69,64,58,65,63,54,100,89,78,29.92,29.75,29.64,10,5,1,17,4,22,2.00,8,Rain,254
2012-9-19,72,61,49,55,50,47,93,67,41,30.16,30.05,29.96,10,10,9,8,1,12,0.00,3,,328
2012-9-20,77,63,49,58,53,49,96,70,43,30.12,30.06,30.00,10,10,8,13,2,16,0.00,2,,260
2012-9-21,78,66,53,60,57,53,100,74,47,30.11,30.01,29.93,10,8,2,13,2,16,0.00,2,,233
2012-9-22,80,66,51,61,56,46,100,73,46,30.05,29.97,29.90,10,7,0,22,6,26,0.00,4,Fog,266
2012-9-23,69,57,44,47,41,31,93,61,28,30.19,30.12,30.05,10,9,1,13,3,17,0.00,0,,312
2012-9-24,69,54,39,44,40,36,100,65,30,30.30,30.22,30.12,10,7,0,7,1,10,0.00,2,Fog,310
2012-9-25,71,56,41,52,47,41,100,71,41,30.21,30.16,30.11,10,10,7,16,1,21,0.00,4,,106
2012-9-26,80,65,50,59,55,50,100,71,42,30.21,30.16,30.12,10,9,4,13,2,17,0.00,2,,247
2012-9-27,79,67,54,62,58,54,100,74,48,30.23,30.16,30.09,10,7,2,10,2,14,0.00,4,,228
2012-9-28,77,68,58,65,61,57,100,82,64,30.16,30.06,30.00,10,7,2,13,1,16,0.05,7,Rain-Thunderstorm,248
2012-9-29,73,63,53,63,62,53,100,84,68,30.06,29.99,29.90,10,5,1,14,1,17,0.69,7,Rain-Thunderstorm,289
2012-9-30,70,60,49,54,52,44,100,70,40,29.99,29.91,29.83,10,5,0,6,0,7,T,6,Fog,96